User: anonymous   Login
Location: Newark
(45.5167°N, 11.1667°E)
Time: 10:09:54
(UTC+00:00)
Language:

Altair - Orbit

View from above orbital plane
View from above orbital plane
View from above satellite
View from above satellite

Ground track
Ground track

The orbit data is extracted from the following two-line orbital elements,

1    50U 60009B   19343.79788346 -.00000094  00000-0 -69617-4 0  9990
2    50  47.2331 352.9991 0112932 117.6944 243.5355 12.20108723647409
Epoch (UTC): 09 December 2019 19:08:57
Eccentricity: 0.0112932
inclination: 47.2331°
perigee height: 1502 km
apogee height: 1682 km
right ascension of ascending node: 352.9991°
argument of perigee: 117.6944°
revolutions per day: 12.20108723
mean anomaly at epoch: 243.5355°
orbit number at epoch: 64740

The dashed part of the orbit path shows where the satellite is in the earth's shadow,  

DLR